This is the latest recevied weather packets stored in our database for station/object DO1SC. If no packets are shown the sender has not sent any weather packets the latest 1 day(s).
| Time | Temp. | Humidity | Pressure | Rain* | Wind** | Luminosity | Snow |
|---|---|---|---|---|---|---|---|
| 1777964719 | 13.33° C | 87% | 1010.9 hPa | - | 0.45 m/s, 174° | 189 W/m² | - |
| 1777964131 | 12.78° C | 88% | 1010.8 hPa | - | 0.89 m/s, 158° | 213 W/m² | - |
| 1777963522 | 12.22° C | 92% | 1010.6 hPa | - | 0.89 m/s, 127° | 205 W/m² | - |
| 1777962937 | 11.67° C | 96% | 1010.8 hPa | - | 0.45 m/s, 300° | 161 W/m² | - |
| 1777962325 | 11.11° C | 96% | 1010.8 hPa | - | 0.45 m/s, 288° | 115 W/m² | - |
| 1777961717 | 11.11° C | 96% | 1010.9 hPa | - | 0.45 m/s, 292° | 75 W/m² | - |
| 1777961131 | 11.11° C | 96% | 1011 hPa | - | 0.45 m/s, 308° | 33 W/m² | - |
| 1777960518 | 11.11° C | 96% | 1011.1 hPa | - | 0.89 m/s, 301° | 19 W/m² | - |
| 1777959930 | 11.11° C | 96% | 1010.9 hPa | - | 0.89 m/s, 299° | 17 W/m² | - |
| 1777959322 | 11.11° C | 95% | 1010.9 hPa | - | 0.45 m/s, 348° | 18 W/m² | - |
| 1777958733 | 11.11° C | 95% | 1010.9 hPa | - | 0.45 m/s, 289° | 9 W/m² | - |
| 1777958124 | 11.11° C | 94% | 1011 hPa | - | 0.89 m/s, 317° | 8 W/m² | - |
| 1777957517 | 11.11° C | 94% | 1011 hPa | - | 0.89 m/s, 306° | 10 W/m² | - |
| 1777956928 | 11.11° C | 94% | 1011.1 hPa | - | 1.34 m/s, 331° | 7 W/m² | - |
| 1777956319 | 11.11° C | 93% | 1011.1 hPa | - | 0.89 m/s, 308° | 9 W/m² | - |
| 1777955731 | 11.11° C | 92% | 1011.2 hPa | - | 1.79 m/s, 307° | 4 W/m² | - |
| 1777955123 | 11.67° C | 92% | 1011.3 hPa | - | 1.79 m/s, 317° | 4 W/m² | - |
| 1777954534 | 11.11° C | 92% | 1011.5 hPa | - | 1.34 m/s, 298° | 3 W/m² | - |
| 1777953925 | 11.11° C | 92% | 1011.4 hPa | - | 1.79 m/s, 305° | 2 W/m² | - |
| 1777953316 | 11.67° C | 91% | 1011.5 hPa | - | 1.79 m/s, 315° | 1 W/m² | - |
| 1777952728 | 11.67° C | 91% | 1011.6 hPa | - | 1.79 m/s, 307° | 0 W/m² | - |
| 1777952119 | 11.67° C | 91% | 1011.6 hPa | - | 1.34 m/s, 299° | 0 W/m² | - |
| 1777951531 | 11.11° C | 92% | 1011.7 hPa | - | 1.34 m/s, 318° | 0 W/m² | - |
| 1777950923 | 11.67° C | 91% | 1011.8 hPa | - | 0.89 m/s, 293° | 0 W/m² | - |
| 1777950335 | 11.67° C | 92% | 1012 hPa | - | 0.89 m/s, 274° | 0 W/m² | - |
* Rain since midnight (hover to see other rain measurements)
** Current wind speed in m/s (hover to see current wind gust speed)